DW1520 Weather Reports


Display with metric or nautical units.
time (UTC)temp
F
wind
direction
speed
MPH
gust
MPH
rain 1hr
in
rain 24hr
in
rain mn
in
humidity
%
barometer
mb
20260507195006 56 261 2.0 3.0 0.00 0.00 0.00 30 1009.6
20260507194506 56 302 3.0 7.0 0.00 0.00 0.00 31 1009.7
20260507194006 56 332 2.0 5.0 0.00 0.00 0.00 33 1009.7
20260507193506 56 311 2.0 3.0 0.00 0.00 0.00 35 1009.6
20260507193006 56 308 3.0 5.0 0.00 0.00 0.00 31 1009.7
20260507192506 56 292 3.0 7.0 0.00 0.00 0.00 32 1009.6
20260507192006 57 303 2.0 3.0 0.00 0.00 0.00 33 1009.6
20260507191505 57 217 2.0 6.0 0.00 0.00 0.00 31 1009.7
20260507191007 56 304 2.0 6.0 0.00 0.00 0.00 34 1009.7
20260507190506 56 333 2.0 8.0 0.00 0.00 0.00 31 1009.7
20260507190006 56 210 2.0 5.0 0.00 0.00 0.00 34 1009.9
20260507185506 56 288 2.0 3.0 0.00 0.00 0.00 34 1009.9
20260507185006 56 302 1.0 3.0 0.00 0.00 0.00 34 1009.9
20260507184505 55 303 1.0 7.0 0.00 0.00 0.00 36 1009.8
20260507184006 55 313 2.0 9.0 0.00 0.00 0.00 36 1009.9
20260507183506 55 300 3.0 9.0 0.00 0.00 0.00 36 1009.9
20260507183006 55 238 2.0 5.0 0.00 0.00 0.00 36 1010.0
20260507182506 55 310 2.0 8.0 0.00 0.00 0.00 35 1010.0
20260507182006 55 1 2.0 12.0 0.00 0.00 0.00 35 1010.1
20260507181006 55 302 2.0 7.0 0.00 0.00 0.00 36 1010.1
20260507180506 54 306 4.0 9.0 0.00 0.00 0.00 38 1010.2
20260507180005 54 297 3.0 5.0 0.00 0.00 0.00 37 1010.3
20260507175506 54 301 2.0 5.0 0.00 0.00 0.00 37 1010.3
20260507175006 54 246 2.0 8.0 0.00 0.00 0.00 35 1010.4
20260507174506 54 319 2.0 3.0 0.00 0.00 0.00 36 1010.5
20260507174006 54 323 2.0 3.0 0.00 0.00 0.00 35 1010.5
20260507173506 54 224 2.0 3.0 0.00 0.00 0.00 41 1010.5
20260507173006 53 309 1.0 3.0 0.00 0.00 0.00 39 1010.6
20260507172505 53 328 1.0 3.0 0.00 0.00 0.00 38 1010.6
20260507172006 53 325 2.0 5.0 0.00 0.00 0.00 39 1010.6
20260507170005 53 202 2.0 5.0 0.00 0.00 0.00 38 1010.8
20260507165505 53 344 1.0 3.0 0.00 0.00 0.00 42 1010.9
20260507165006 52 347 1.0 3.0 0.00 0.00 0.00 40 1011.0
20260507164506 52 314 2.0 5.0 0.00 0.00 0.00 42 1011.0
20260507164007 52 294 2.0 6.0 0.00 0.00 0.00 45 1011.0
20260507163506 52 296 2.0 5.0 0.00 0.00 0.00 42 1011.1
20260507163009 52 239 2.0 6.0 0.00 0.00 0.00 45 1011.0
20260507162506 52 348 2.0 6.0 0.00 0.00 0.00 45 1011.1
20260507162006 51 324 1.0 3.0 0.00 0.00 0.00 45 1011.1
20260507161506 51 324 2.0 5.0 0.00 0.00 0.00 42 1011.1
20260507161006 52 306 3.0 5.0 0.00 0.00 0.00 42 1011.3
20260507160506 52 304 1.0 5.0 0.00 0.00 0.00 46 1011.3
20260507160005 52 49 2.0 5.0 0.00 0.00 0.00 47 1011.2
20260507155506 51 324 1.0 3.0 0.00 0.00 0.00 47 1011.2
20260507155006 51 324 2.0 3.0 0.00 0.00 0.00 47 1011.2
20260507154505 51 328 1.0 3.0 0.00 0.00 0.00 47 1011.3
20260507154008 51 330 1.0 5.0 0.00 0.00 0.00 48 1011.2
20260507153505 51 301 2.0 6.0 0.00 0.00 0.00 50 1011.2
20260507153006 51 298 2.0 3.0 0.00 0.00 0.00 48 1011.2
20260507152506 51 298 2.0 3.0 0.00 0.00 0.00 49 1011.1
20260507152006 50 333 1.0 3.0 0.00 0.00 0.00 52 1011.2
20260507151506 50 355 2.0 3.0 0.00 0.00 0.00 49 1011.3
20260507151006 50 338 1.0 3.0 0.00 0.00 0.00 51 1011.3
20260507150506 50 325 2.0 3.0 0.00 0.00 0.00 51 1011.3
20260507150006 50 321 1.0 3.0 0.00 0.00 0.00 52 1011.4
20260507145505 49 314 1.0 5.0 0.00 0.00 0.00 53 1011.4
20260507145006 49 298 2.0 7.0 0.00 0.00 0.00 54 1011.4
20260507144506 49 11 0.0 3.0 0.00 0.00 0.00 54 1011.4
20260507144006 48 12 0.0 3.0 0.00 0.00 0.00 57 1011.5
20260507143506 48 317 1.0 3.0 0.00 0.00 0.00 57 1011.6
20260507143006 48 296 2.0 3.0 0.00 0.00 0.00 59 1011.6
20260507142506 47 309 1.0 3.0 0.00 0.00 0.00 61 1011.7
20260507142006 47 299 1.0 3.0 0.00 0.00 0.00 62 1011.7
20260507141505 46 313 2.0 3.0 0.00 0.00 0.00 62 1011.8
20260507140006 46 307 1.0 3.0 0.00 0.00 0.00 64 1011.9
20260507134506 43 309 1.0 3.0 0.00 0.00 0.00 71 1012.1
20260507134005 42 302 0.0 1.0 0.00 0.00 0.00 73 1012.0
20260507133006 41 302 0.0 0.0 0.00 0.00 0.00 76 1012.2
20260507132506 40 302 0.0 0.0 0.00 0.00 0.00 78 1012.2
20260507132006 40 302 0.0 1.0 0.00 0.00 0.00 80 1012.3
20260507131005 39 302 0.0 1.0 0.00 0.00 0.00 80 1012.2
20260507130006 38 302 1.0 2.0 0.00 0.00 0.00 84 1012.3
20260507125513 37 302 0.0 1.0 0.00 0.00 0.00 83 1012.3
20260507125006 36 302 0.0 1.0 0.00 0.00 0.00 82 1012.3
20260507124506 36 302 0.0 1.0 0.00 0.00 0.00 83 1012.4
20260507124005 36 302 0.0 0.0 0.00 0.00 0.00 82 1012.4
20260507123506 36 302 0.0 0.0 0.00 0.00 0.00 82 1012.4
20260507123007 36 302 0.0 0.0 0.00 0.00 0.00 82 1012.4
20260507122505 36 302 0.0 0.0 0.00 0.00 0.00 83 1012.4
20260507122006 36 302 0.0 0.0 0.00 0.00 0.00 84 1012.3
20260507121505 36 302 0.0 0.0 0.00 0.00 0.00 84 1012.3
20260507121006 35 302 0.0 0.0 0.00 0.00 0.00 85 1012.3
20260507120505 35 302 0.0 0.0 0.00 0.00 0.00 85 1012.2
20260507120006 35 302 0.0 0.0 0.00 0.00 0.00 85 1012.2
20260507115506 34 302 0.0 0.0 0.00 0.00 0.00 85 1012.2
20260507115006 34 302 0.0 0.0 0.00 0.00 0.00 85 1012.2
20260507114506 34 302 0.0 0.0 0.00 0.00 0.00 85 1012.3
20260507114005 34 302 0.0 0.0 0.00 0.00 0.00 86 1012.3
20260507113506 34 302 0.0 0.0 0.00 0.00 0.00 86 1012.3
20260507113006 33 302 0.0 0.0 0.00 0.00 0.00 86 1012.3
20260507112505 33 302 0.0 0.0 0.00 0.00 0.00 86 1012.3
20260507112005 33 302 0.0 0.0 0.00 0.00 0.00 85 1012.3
20260507111507 33 302 0.0 0.0 0.00 0.00 0.00 85 1012.3
20260507110506 32 302 0.0 0.0 0.00 0.00 0.00 85 1012.2
20260507105505 32 302 0.0 0.0 0.00 0.00 0.00 86 1012.3
20260507105006 32 302 0.0 0.0 0.00 0.00 0.00 86 1012.3
20260507104506 32 302 0.0 0.0 0.00 0.00 0.00 86 1012.3
20260507104005 32 302 0.0 0.0 0.00 0.00 0.00 86 1012.3
20260507103505 32 302 0.0 0.0 0.00 0.00 0.00 85 1012.3
20260507103006 32 302 0.0 0.0 0.00 0.00 0.00 85 1012.3
20260507102505 32 302 0.0 0.0 0.00 0.00 0.00 85 1012.4
20260507102007 32 302 0.0 0.0 0.00 0.00 0.00 85 1012.4
20260507101507 32 302 0.0 0.0 0.00 0.00 0.00 85 1012.4
20260507100506 32 302 0.0 0.0 0.00 0.00 0.00 84 1012.5
20260507100005 32 302 0.0 0.0 0.00 0.00 0.00 84 1012.5
20260507095506 32 302 0.0 0.0 0.00 0.00 0.00 84 1012.5
20260507094006 32 302 0.0 0.0 0.00 0.00 0.00 83 1012.6
20260507093506 32 302 0.0 0.0 0.00 0.00 0.00 82 1012.6
20260507093005 32 302 0.0 0.0 0.00 0.00 0.00 82 1012.5
20260507092506 32 302 0.0 0.0 0.00 0.00 0.00 82 1012.6
20260507092006 32 302 0.0 0.0 0.00 0.00 0.00 82 1012.6
20260507091505 32 302 0.0 0.0 0.00 0.00 0.00 82 1012.6
20260507090505 32 302 0.0 0.0 0.00 0.00 0.00 81 1012.7
20260507090006 32 302 0.0 0.0 0.00 0.00 0.00 81 1012.6
20260507085506 32 302 0.0 0.0 0.00 0.00 0.00 81 1012.6
20260507085006 32 302 0.0 0.0 0.00 0.00 0.00 82 1012.7
20260507084006 33 302 0.0 0.0 0.00 0.00 0.00 81 1012.7
20260507083007 33 302 0.0 0.0 0.00 0.00 0.00 82 1012.8
20260507082505 33 302 0.0 1.0 0.00 0.00 0.00 81 1012.9
20260507082005 33 302 0.0 0.0 0.00 0.00 0.00 81 1012.9
20260507081506 33 302 0.0 0.0 0.00 0.00 0.00 81 1012.9
20260507081006 33 302 0.0 0.0 0.00 0.00 0.00 80 1013.0
20260507080506 33 302 0.0 0.0 0.00 0.00 0.00 80 1013.0
20260507080005 33 302 0.0 0.0 0.00 0.00 0.00 80 1012.9
20260507075505 33 302 0.0 0.0 0.00 0.00 0.00 79 1012.9
20260507075005 33 302 0.0 0.0 0.00 0.00 0.00 80 1012.9
20260507074506 33 302 0.0 0.0 0.00 0.00 0.00 79 1013.0
20260507073505 34 302 0.0 0.0 0.00 0.00 0.00 79 1013.1
20260507073006 34 302 0.0 0.0 0.00 0.00 0.00 79 1013.2
20260507071506 34 302 0.0 0.0 0.00 0.00 0.00 81 1013.3
20260507071005 34 302 0.0 0.0 0.00 0.00 0.00 81 1013.3
20260507070506 34 302 0.0 0.0 0.00 0.00 0.00 81 1013.3
20260507070010 34 302 0.0 0.0 0.00 0.00 0.00 82 1013.4
20260507065006 34 302 0.0 0.0 0.00 0.00 0.00 83 1013.5
20260507064505 33 302 0.0 0.0 0.00 0.00 0.00 83 1013.6
20260507064006 33 302 0.0 0.0 0.00 0.00 0.00 83 1013.6
20260507063506 33 302 0.0 0.0 0.00 0.00 0.00 84 1013.6
20260507063005 33 302 0.0 0.0 0.00 0.00 0.00 85 1013.6
20260507062506 33 302 0.0 0.0 0.00 0.00 0.00 85 1013.6
20260507062005 33 302 0.0 0.0 0.00 0.00 0.00 85 1013.6
20260507061006 33 302 0.0 0.0 0.00 0.00 0.00 84 1013.7
20260507060505 33 302 0.0 0.0 0.00 0.00 0.00 85 1013.7
20260507055506 33 302 0.0 0.0 0.00 0.00 0.00 85 1013.7
20260507055006 33 302 0.0 0.0 0.00 0.00 0.00 85 1013.7
20260507054505 33 302 0.0 0.0 0.00 0.00 0.00 85 1013.7
20260507054005 33 302 0.0 0.0 0.00 0.00 0.00 84 1013.8
20260507053505 33 302 0.0 0.0 0.00 0.00 0.00 84 1013.8
20260507053005 33 302 0.0 0.0 0.00 0.00 0.00 84 1013.8
20260507052506 33 302 0.0 0.0 0.00 0.00 0.00 83 1013.9
20260507052006 33 302 0.0 0.0 0.00 0.00 0.00 82 1013.9
20260507051505 33 302 0.0 0.0 0.00 0.00 0.00 81 1013.9
20260507051006 33 302 0.0 0.0 0.00 0.00 0.00 81 1013.9
20260507050505 33 302 0.0 0.0 0.00 0.00 0.00 80 1013.9
20260507045505 34 302 0.0 0.0 0.00 0.00 0.00 79 1013.9
20260507045005 34 302 0.0 0.0 0.00 0.00 0.00 79 1013.9
20260507044505 34 302 0.0 0.0 0.00 0.00 0.00 78 1013.9
20260507044005 35 302 0.0 0.0 0.00 0.00 0.00 78 1014.0
20260507043506 35 302 0.0 0.0 0.00 0.00 0.00 75 1014.0
20260507042505 35 302 0.0 0.0 0.00 0.00 0.00 74 1014.0
20260507042006 35 302 0.0 0.0 0.00 0.00 0.00 74 1014.0
20260507041506 35 302 0.0 0.0 0.00 0.00 0.00 73 1014.1
20260507041006 35 302 0.0 0.0 0.00 0.00 0.00 73 1014.1
20260507040505 35 302 0.0 0.0 0.00 0.00 0.00 73 1014.1
20260507035506 35 302 0.0 0.0 0.00 0.00 0.00 73 1014.0
20260507035006 35 302 0.0 0.0 0.00 0.00 0.00 72 1014.1
20260507034506 36 302 0.0 0.0 0.00 0.00 0.00 72 1014.1
20260507034006 36 302 0.0 0.0 0.00 0.00 0.00 71 1014.1
20260507033506 36 302 0.0 0.0 0.00 0.00 0.00 70 1014.2
20260507033006 36 302 0.0 0.0 0.00 0.00 0.00 70 1014.3
20260507032006 37 302 0.0 0.0 0.00 0.00 0.00 69 1014.3
20260507031505 37 302 0.0 0.0 0.00 0.00 0.00 69 1014.3
20260507031006 37 302 0.0 0.0 0.00 0.00 0.00 68 1014.3
20260507030506 37 302 0.0 0.0 0.00 0.00 0.00 68 1014.4
20260507030005 37 302 0.0 0.0 0.00 0.00 0.00 68 1014.4
20260507025505 38 302 0.0 0.0 0.00 0.00 0.00 67 1014.4
20260507025006 38 302 0.0 0.0 0.00 0.00 0.00 67 1014.4
20260507024506 38 302 0.0 0.0 0.00 0.00 0.00 66 1014.6
20260507024005 38 302 0.0 0.0 0.00 0.00 0.00 65 1014.5
20260507023505 38 302 0.0 0.0 0.00 0.00 0.00 65 1014.6
20260507023006 39 302 0.0 0.0 0.00 0.00 0.00 66 1014.6
20260507022506 39 302 0.0 0.0 0.00 0.00 0.00 64 1014.5
20260507022006 39 302 0.0 0.0 0.00 0.00 0.00 64 1014.5
20260507021505 39 302 0.0 0.0 0.00 0.00 0.00 63 1014.5
20260507015506 41 302 0.0 0.0 0.00 0.00 0.00 59 1014.3
20260507015006 41 302 0.0 0.0 0.00 0.00 0.00 58 1014.4
20260507014505 42 302 0.0 0.0 0.00 0.00 0.00 58 1014.4
20260507014006 42 302 0.0 0.0 0.00 0.00 0.00 57 1014.4
20260507013506 42 302 0.0 0.0 0.00 0.00 0.00 56 1014.3
20260507013006 42 302 0.0 0.0 0.00 0.00 0.00 56 1014.3
20260507012506 43 302 0.0 0.0 0.00 0.00 0.00 56 1014.3
20260507012006 43 302 0.0 0.0 0.00 0.00 0.00 56 1014.3
20260507011506 43 302 0.0 0.0 0.00 0.00 0.00 55 1014.2
20260507011007 44 302 0.0 0.0 0.00 0.00 0.00 56 1014.2
20260507010505 44 302 0.0 0.0 0.00 0.00 0.00 55 1014.3
20260507010005 44 302 0.0 2.0 0.00 0.00 0.00 54 1014.3
20260507005506 44 302 0.0 2.0 0.00 0.00 0.00 56 1014.3
20260507005006 44 302 0.0 1.0 0.00 0.00 0.00 55 1014.3
20260507004506 44 302 0.0 0.0 0.00 0.00 0.00 54 1014.2
20260507004006 44 302 0.0 1.0 0.00 0.00 0.00 53 1014.2
20260507003506 44 302 0.0 3.0 0.00 0.00 0.00 54 1014.2
20260507003007 45 302 0.0 3.0 0.00 0.00 0.00 55 1014.2
20260507002506 45 302 1.0 3.0 0.00 0.00 0.00 52 1014.2
20260507002005 45 302 1.0 3.0 0.00 0.00 0.00 52 1014.2
20260507001505 45 302 0.0 3.0 0.00 0.00 0.00 52 1014.2
20260507000505 45 295 1.0 3.0 0.00 0.00 0.00 51 1014.2
20260506234506 47 317 2.0 3.0 0.00 0.00 0.00 49 1014.3
20260506234006 47 317 2.0 8.0 0.00 0.00 0.00 48 1014.3
20260506233506 47 305 3.0 10.0 0.00 0.00 0.00 47 1014.3
20260506233006 47 200 2.0 5.0 0.00 0.00 0.00 47 1014.2
20260506232506 47 323 1.0 6.0 0.00 0.00 0.00 49 1014.2
20260506232006 47 269 2.0 5.0 0.00 0.00 0.00 48 1014.2
20260506231506 47 243 2.0 8.0 0.00 0.00 0.00 49 1014.2
20260506231005 47 223 2.0 7.0 0.00 0.00 0.00 49 1014.3
20260506230506 46 299 2.0 5.0 0.00 0.00 0.00 49 1014.2
20260506225506 46 296 2.0 3.0 0.00 0.00 0.00 50 1014.2
20260506225006 46 295 2.0 5.0 0.00 0.00 0.00 49 1014.3
20260506224505 46 306 2.0 3.0 0.00 0.00 0.00 51 1014.3
20260506224006 46 305 2.0 3.0 0.00 0.00 0.00 51 1014.4
20260506223505 46 306 3.0 3.0 0.00 0.00 0.00 51 1014.4
20260506223006 46 328 1.0 8.0 0.00 0.00 0.00 51 1014.4
20260506222506 46 259 2.0 6.0 0.00 0.00 0.00 51 1014.5
20260506222005 45 240 2.0 3.0 0.00 0.00 0.00 52 1014.5
20260506221505 45 305 3.0 7.0 0.00 0.00 0.00 50 1014.6
20260506221005 45 263 2.0 5.0 0.00 0.00 0.00 51 1014.6
20260506220505 45 302 3.0 9.0 0.00 0.00 0.00 50 1014.7
20260506220005 46 219 2.0 9.0 0.00 0.00 0.00 50 1014.7
20260506215505 46 322 1.0 7.0 0.00 0.00 0.00 52 1014.7
20260506215006 45 294 2.0 7.0 0.00 0.00 0.00 52 1014.8
20260506214506 45 274 3.0 6.0 0.00 0.00 0.00 51 1014.8
20260506214005 45 337 2.0 9.0 0.00 0.00 0.00 52 1014.8
20260506213505 45 309 1.0 3.0 0.00 0.00 0.00 53 1014.9
20260506213005 45 313 3.0 9.0 0.00 0.00 0.00 51 1015.0
20260506212505 45 195 2.0 3.0 0.00 0.00 0.00 54 1014.9
20260506212006 44 263 0.0 3.0 0.00 0.00 0.00 53 1014.9
20260506211505 44 235 2.0 3.0 0.00 0.00 0.00 52 1015.1
20260506210505 44 257 2.0 9.0 0.00 0.00 0.00 51 1015.1
20260506210005 44 305 3.0 9.0 0.00 0.00 0.00 53 1015.1
20260506205505 44 296 2.0 8.0 0.00 0.00 0.00 54 1015.1
20260506205005 43 283 1.0 5.0 0.00 0.00 0.00 53 1015.2
20260506204006 43 304 3.0 12.0 0.00 0.00 0.00 53 1015.2
20260506203005 43 292 2.0 5.0 0.00 0.00 0.00 55 1015.3
20260506202505 43 287 3.0 5.0 0.00 0.00 0.00 53 1015.2
20260506202005 43 292 5.0 12.0 0.00 0.00 0.00 53 1015.3
20260506201505 43 279 3.0 7.0 0.00 0.00 0.00 54 1015.3
20260506201005 43 244 2.0 7.0 0.00 0.00 0.00 55 1015.3
20260506200005 43 265 3.0 8.0 0.00 0.00 0.00 55 1015.3